Погода в Пазаре

Турция     41°10′48″N   40°53′03″E
темп.,
°C
ветер,
м/с
пор.,
м/с
влажн.,
%
обл.,
%
осадки,
мм/ч
давл.,
гПа
погр.,
м
6 марта, сб
сб600:00+10ююв33500 0.0 102531
03:00+11ююв44470 0.0 102632
06:00+11ююв44490 0.0 102529
09:00+12юз34500 0.0 102433
12:00+14св11510 0.0 1022221
15:00+14зсз344135 0.0 102071
18:00+12юз3456100 0.0 102139
21:00+11юз4560100 0.0 102260
7 марта, вс
вс700:00+11юз3461100 0.0 102260
03:00+9юз5781100 1.2 1022378
06:00+8юз6892100 11.2 1022556
09:00+6ссз5691100 20.3 1023511
12:00+4з2294100 7.6 1023345
15:00+4зсз3391100 9.9 1023345
18:00+3зсз3391100 0.8 1024336
21:00+3юз1188100 1.4 1025274
8 марта, пн
пн800:00+3ю0189100 0.4 1023143
03:00+3юв1186100 0.9 1022190
06:00+2ю1195100 0.2 1020190
09:00+3ююз1194100 0.4 1019190
12:00+3ссз119299 0.3 1017243
15:00+4ссв118698 0.4 1016242
18:00+4с227857 0.1 1017323
21:00+4в127448 0.1 1020344
9 марта, вт
вт900:00+5всв226821 0.0 1020427
03:00+5всв116511 0.0 1021356
06:00+5в126270 0.0 1021345
09:00+6с216235 0.0 1022387
12:00+7ссв32660 0.0 1022379
15:00+7с22690 0.0 1021341
18:00+6ююв007112 0.0 1022261
21:00+6юв016738 0.0 1025281
10 марта, ср
ср1000:00+6юв216698 0.0 1025298
03:00+6в126155 0.0 1024369
06:00+6св336316 0.0 1023338
09:00+7ссв326249 0.0 1022397
12:00+7св2260100 0.0 1020308
15:00+7всв3366100 0.0 1017288
18:00+7ссв1167100 0.0 1016108
21:00+7ссз2275100 0.4 1017593